Wind_Speed
2 2 5 4 4 4 1 2 2 1 3 5 1 9 11 8 6 5 3 3 5 5 9 12 13 16 17 18 19 19 19 21 23 24 26 25 26 23 25 25 27 27 26 26
1 4 6 4 2 4 5 4 4 3 4 2 7 7 8 10 5 6 6 4 3 4 8 13 14 16 17 17 17 17 19 20 21 22 21 23 23 19 23 27 28 28 29 27
7 4 5 4 2 3 3 4 4 5 2 3 6 5 9 8 7 7 4 3 3 5 7 11 13 13 14 16 16 16 17 18 19 21 20 21 18 20 21 27 29 34 31 29
5 2 7 5 4 8 7 8 8 5 3 5 2 7 6 10 11 9 4 3 2 3 4 8 11 12 14 14 13 13 15 16 18 20 20 21 20 22 24 24 26 29 30 30
5 4 4 4 7 10 6 6 8 6 4 3 5 5 3 8 12 13 6 3 3 4 5 8 11 11 11 12 12 14 16 18 19 19 19 19 19 20 21 25 27 28 30 28
8 1 4 4 3 10 5 5 3 2 2 7 10 9 11 7 8 9 6 4 3 4 5 6 9 10 13 13 14 15 17 18 19 19 19 20 21 23 25 28 27 30 31 32
2 13 9 4 8 1 11 7 4 5 5 9 4 9 14 8 7 10 12 6 4 3 4 7 13 15 17 18 17 17 18 19 19 20 20 20 21 22 22 25 26 29 33 34
3 6 6 4 16 9 11 14 7 9 6 4 5 8 2 5 8 10 9 7 5 4 5 8 12 13 15 16 16 17 17 18 19 19 21 20 20 21 21 23 25 26 28 34
4 6 3 4 4 12 5 10 11 4 2 3 4 2 3 8 8 8 7 6 4 4 5 6 10 11 12 13 14 15 14 15 17 19 20 21 21 22 22 22 23 25 25 29
3 10 8 13 4 4 13 5 7 2 5 7 6 5 7 14 14 11 8 6 5 4 3 5 8 10 11 12 12 13 13 15 17 17 19 20 20 20 20 20 23 23 25 26
7 6 6 6 3 5 5 9 6 4 11 6 6 4 3 11 16 15 10 7 7 4 4 4 6 8 10 13 13 15 14 15 17 17 18 20 20 21 20 20 21 23 23 26
6 3 8 11 14 12 11 8 8 9 7 6 7 7 4 4 11 12 11 9 6 5 5 3 5 8 12 15 17 16 14 15 16 15 17 20 20 20 20 21 21 22 23 25
2 1 5 7 6 14 10 16 8 3 6 17 6 4 3 4 9 10 11 10 8 7 5 2 4 8 11 13 17 15 13 17 18 16 15 20 21 21 21 21 22 22 24 25
4 8 12 13 4 1 4 17 13 6 5 3 11 2 6 9 10 11 11 11 9 6 5 2 4 7 9 11 13 13 15 19 17 14 14 19 23 21 20 20 21 23 24 25
7 15 11 18 15 12 13 8 11 14 12 7 5 8 7 19 17 13 10 11 9 7 5 3 4 6 9 11 13 15 16 15 13 14 15 19 22 20 20 20 20 23 24 24
2 8 7 18 16 15 16 19 14 15 16 12 12 17 2 5 13 13 13 12 9 7 5 4 5 7 9 11 13 14 14 14 13 14 17 19 21 21 20 20 20 21 23 24
4 4 3 9 6 5 9 15 18 16 18 17 16 11 8 8 13 17 15 12 10 8 6 5 5 6 7 9 11 11 12 12 11 14 17 19 22 22 22 20 21 23 23 23
7 8 4 5 2 7 2 3 8 16 8 7 3 8 10 11 9 11 10 12 11 9 7 6 6 5 7 7 8 9 10 11 12 15 16 17 21 22 22 22 23 24 23 24
12 10 4 4 8 8 5 4 5 7 9 10 9 11 13 14 11 4 8 8 10 10 9 8 6 7 7 7 7 8 10 12 14 16 16 16 18 22 22 23 24 24 24 25
7 9 8 5 5 5 2 2 4 2 8 14 14 17 19 16 8 6 12 12 13 13 11 9 8 8 8 7 4 8 11 13 14 14 15 15 15 21 21 21 23 22 23 23
4 3 13 11 5 5 4 3 4 5 4 10 14 19 19 9 2 16 16 14 15 13 12 10 9 9 6 6 7 9 11 13 13 13 13 15 15 17 20 19 20 21 22 22
9 6 3 2 1 7 6 5 5 1 4 9 13 15 14 13 15 18 15 15 16 15 12 9 10 8 7 7 7 7 10 11 11 13 16 18 19 17 18 20 19 21 22 23
5 6 4 8 5 1 1 2 2 4 7 7 13 15 15 17 17 16 14 14 15 14 12 10 10 9 7 6 7 7 7 9 10 13 16 17 18 18 19 18 19 20 21 21
4 3 3 2 3 2 2 0 1 3 7 13 14 18 17 18 17 16 13 14 15 13 13 12 11 9 8 6 6 7 6 6 8 10 11 14 15 16 18 15 16 18 21 20
2 7 6 4 2 1 6 6 6 9 12 15 14 15 16 19 16 16 13 16 15 14 12 12 13 11 10 7 6 6 6 5 6 8 8 10 11 13 13 14 14 14 16 19
5 6 5 4 6 3 3 11 12 14 13 16 17 14 16 20 17 19 16 17 17 15 13 12 11 10 9 8 6 6 5 5 5 6 7 8 8 10 10 10 10 14 12 15
Wind_Direction
30 40 261 262 240 327 332 248 239 279 90 111 293 159 171 156 142 146 125 83 48 36 16 17 14 10 9 15 15 12 9 9 11 10 8 5 1 360 356 351 346 344 340 334
67 248 279 238 233 248 285 301 276 285 60 189 164 182 185 187 181 174 164 140 75 35 26 15 12 10 9 5 8 8 9 11 14 12 7 5 359 353 349 345 344 343 341 337
204 193 99 159 195 240 238 229 246 261 84 67 149 213 198 203 179 173 147 112 66 34 32 15 10 7 4 7 6 5 6 12 15 11 6 4 359 356 353 348 341 339 338 337
243 257 220 207 223 209 253 206 233 255 268 266 254 278 209 202 195 202 177 112 74 49 62 25 13 8 7 4 5 6 10 15 14 12 9 4 0 351 345 342 337 335 335 333
236 169 171 185 222 174 231 198 211 213 220 288 214 266 130 171 215 208 186 134 85 55 40 27 12 4 7 7 9 9 14 20 15 11 7 3 357 349 343 347 343 340 337 335
254 202 191 218 237 210 153 115 77 76 152 246 228 217 265 187 221 179 161 136 79 51 37 24 10 9 11 12 15 14 16 16 13 9 7 6 359 354 351 351 346 343 339 337
314 245 241 197 240 136 196 175 209 224 208 250 139 207 257 169 169 167 157 142 120 78 51 20 12 10 9 9 10 11 13 14 9 7 7 5 4 0 359 354 345 344 340 338
290 291 180 202 220 221 200 205 211 239 217 250 146 228 260 154 130 116 122 127 128 86 65 32 18 12 8 4 6 7 10 8 5 4 5 5 4 3 1 356 350 346 341 338
226 250 285 219 221 206 194 218 234 256 78 286 220 225 181 152 159 152 141 139 126 89 75 42 22 18 11 6 6 5 4 5 6 5 4 5 4 6 2 0 356 351 347 345
230 275 248 268 177 216 225 168 215 185 221 235 231 249 232 200 194 182 172 166 150 137 111 56 27 15 12 7 5 9 10 8 5 5 8 5 7 6 5 3 0 357 353 350
209 238 242 332 209 206 212 226 230 256 214 249 263 237 199 203 190 184 179 170 165 154 132 72 29 21 17 18 14 13 11 7 6 6 6 6 9 10 7 5 1 1 358 354
219 254 260 253 263 255 272 263 261 237 229 242 272 264 345 175 164 171 171 164 154 145 150 97 33 21 21 22 20 14 8 4 1 4 6 7 10 12 10 7 2 4 4 2
176 228 285 276 251 250 243 238 230 238 247 235 238 260 36 126 134 160 157 162 161 155 148 110 48 32 23 20 20 15 9 5 2 5 3 11 14 13 12 8 5 7 7 7
192 229 232 252 261 206 252 252 211 226 226 209 221 198 211 213 184 169 165 161 160 143 140 128 54 35 24 23 20 17 14 7 1 354 0 10 13 13 10 9 9 9 10 10
203 248 234 243 247 252 266 241 221 208 232 234 259 222 223 210 194 171 152 159 157 145 150 125 55 37 25 19 20 23 16 5 356 356 6 14 12 12 12 13 12 10 12 14
192 265 273 267 270 266 254 250 237 212 236 244 249 259 92 142 155 163 168 168 157 157 145 114 67 43 31 23 23 19 12 2 0 5 14 16 13 14 14 13 13 13 14 16
250 223 229 262 255 261 259 235 229 236 227 211 222 239 158 153 180 175 169 170 161 159 148 112 77 52 38 33 25 20 10 6 7 14 20 20 15 16 16 16 17 17 16 16
214 248 217 277 209 235 285 261 241 230 227 199 169 171 179 159 149 148 160 156 153 149 137 111 97 76 50 39 32 24 19 18 22 24 22 20 18 18 18 19 19 18 18 20
213 218 228 245 247 292 281 227 196 191 232 191 153 139 122 126 109 102 144 143 141 131 122 123 113 88 66 50 45 36 32 31 32 27 23 20 20 20 21 22 19 19 20 21
170 224 205 208 244 261 250 188 198 211 267 179 159 157 152 151 169 175 156 137 123 124 137 136 115 96 73 56 78 51 44 39 34 27 25 26 32 28 28 25 23 22 24 24
179 187 209 217 228 270 257 166 162 176 255 162 163 158 158 163 53 135 139 129 132 139 138 131 113 102 89 73 95 65 49 43 41 41 38 38 41 35 33 32 32 29 28 29
190 190 202 165 143 262 146 132 201 164 86 154 149 154 137 116 127 133 132 136 141 143 144 134 130 122 101 84 90 78 56 51 52 51 51 48 46 43 38 38 37 33 30 30
194 194 189 196 207 37 135 353 7 156 141 156 142 147 138 137 138 139 142 144 149 150 148 146 137 126 115 93 93 91 70 64 65 62 57 54 51 48 43 40 36 36 31 29
224 185 222 168 184 198 204 194 162 151 147 151 149 146 145 139 143 143 144 147 149 155 152 152 146 138 125 119 103 85 85 82 67 63 55 51 53 47 45 43 37 37 32 28
180 161 174 248 263 249 226 214 155 124 129 129 140 145 143 140 149 149 152 154 156 158 157 163 160 151 144 137 116 97 81 86 78 66 60 53 47 46 44 45 42 37 38 33
190 175 187 221 202 194 204 167 152 147 148 145 137 135 145 147 151 154 155 157 159 165 165 168 171 165 159 151 136 115 97 81 90 83 63 57 51 45 41 41 44 48 46 39
Height
824 824 823 823 825 822 820 820 816 814 812 816 831 838 847 853 857 859 861 861 863 864 865 862 860 857 854 849 845 844 841 837 832 827 823 820 817 814 812 808 804 799 795 791
825 825 817 819 822 825 822 822 820 816 819 815 834 835 845 850 852 855 857 859 860 860 859 860 858 857 855 853 849 845 842 837 832 828 826 822 819 816 814 809 803 797 794 790
817 811 816 820 822 823 822 823 821 816 823 831 830 826 838 845 850 856 857 858 859 859 858 860 860 859 857 853 850 847 843 838 833 830 826 823 821 816 811 807 802 796 791 787
817 812 813 816 819 818 823 814 815 817 818 816 826 806 823 836 844 850 855 855 858 860 861 862 861 859 856 854 852 849 844 839 833 829 826 823 820 816 813 808 803 797 792 785
807 811 815 817 812 811 810 808 810 812 817 821 821 820 809 836 837 839 850 855 857 861 862 862 861 860 858 855 852 849 843 836 832 830 828 824 821 817 812 807 801 796 789 785
808 805 807 803 804 806 805 810 815 820 818 816 804 812 772 821 819 834 848 853 856 859 860 861 861 859 857 853 849 845 841 837 833 831 828 824 820 815 809 804 800 793 787 781
811 806 802 801 805 807 806 807 816 820 821 806 807 810 774 816 826 825 838 850 855 858 859 860 858 855 854 851 849 845 841 837 835 832 827 822 819 815 810 805 802 795 787 780
812 807 803 798 799 800 804 801 803 810 811 801 810 799 789 823 830 836 842 849 855 857 857 859 859 857 855 853 850 847 842 838 836 832 827 823 819 815 811 806 803 798 792 784
810 808 798 798 795 798 802 805 793 804 813 811 792 804 821 829 835 840 843 848 853 856 856 859 860 859 856 854 851 848 845 841 837 833 828 823 820 815 811 807 804 799 794 788
800 804 795 791 793 793 793 793 804 808 818 809 789 796 776 823 824 832 843 846 853 856 859 858 858 858 855 854 851 848 845 841 838 834 829 826 820 816 812 808 804 799 795 789
798 802 796 794 794 792 795 795 795 795 797 797 787 781 803 800 810 823 836 847 852 856 858 857 858 857 855 852 850 847 844 842 839 835 831 826 821 816 813 809 805 800 794 790
800 802 798 797 788 787 789 789 792 795 802 799 795 788 811 804 809 821 835 845 851 855 859 857 857 855 852 850 847 847 846 843 840 836 832 828 820 816 813 810 806 800 795 791
797 804 804 793 788 783 785 779 785 792 790 795 801 786 818 818 816 824 836 843 849 854 856 857 856 853 851 849 848 847 847 844 840 836 835 828 821 816 813 810 806 800 795 790
796 795 797 792 789 788 788 778 779 790 800 792 786 797 821 823 820 826 834 841 848 850 852 855 853 853 851 849 848 847 845 842 842 841 836 828 822 817 814 810 805 801 796 791
792 786 789 782 783 782 780 777 776 788 793 799 785 793 793 804 810 820 831 842 844 845 850 852 852 851 850 849 848 845 844 845 846 842 835 827 823 820 816 811 806 802 798 793
790 785 786 780 777 782 793 775 773 776 785 793 796 783 790 796 808 820 828 837 838 843 846 848 849 850 851 851 848 847 847 848 846 842 835 829 825 821 818 813 808 804 800 796
793 789 795 781 779 792 785 774 768 764 761 768 773 770 796 803 808 813 823 829 832 839 843 845 849 851 852 851 850 850 850 849 847 842 835 831 828 823 819 815 811 806 802 798
787 791 794 783 787 776 757 768 763 762 760 766 770 780 781 791 806 815 822 826 832 837 841 845 849 852 852 852 852 851 851 850 845 840 837 834 830 826 821 817 813 808 804 800
777 784 787 782 770 760 756 763 764 758 752 765 771 786 796 808 813 824 826 828 832 836 841 847 851 851 852 853 853 853 852 849 845 841 839 836 833 828 824 820 816 811 807 802
779 777 781 779 775 763 750 758 759 755 752 761 768 785 793 797 797 805 824 829 833 839 844 847 850 852 853 853 854 853 851 848 845 843 840 838 835 832 828 824 820 817 812 808
778 779 772 768 770 764 750 757 760 758 755 763 769 778 787 788 794 805 821 829 835 840 844 847 849 852 854 853 853 852 851 849 847 844 842 839 837 834 832 829 825 822 818 814
763 769 770 772 773 768 754 760 756 759 768 769 775 782 789 800 808 813 821 829 835 840 844 847 850 853 853 853 852 852 851 850 848 846 843 840 838 836 834 832 829 827 823 819
762 755 756 754 751 761 761 761 762 762 764 773 776 784 791 800 807 814 822 830 836 840 844 847 849 851 853 853 852 852 852 850 848 846 844 842 840 838 836 834 833 830 828 825
754 756 753 755 757 761 763 766 766 766 767 772 778 784 792 797 807 816 824 831 836 840 843 846 848 850 852 853 852 852 851 850 848 847 845 844 842 840 838 837 836 834 832 829
748 752 755 755 762 764 762 763 764 768 771 776 783 785 791 798 808 815 824 830 835 839 843 845 847 849 851 852 852 852 851 850 849 848 846 845 844 842 841 839 838 837 835 833
746 747 747 742 743 743 745 756 763 767 771 777 781 790 796 800 808 816 823 828 833 837 841 844 847 849 850 851 851 851 850 850 849 848 847 846 845 844 843 842 841 839 837 835